Accueil
METAR-TAF:

METAR-TAF

Aéroports :

Nancy, France

Base aérienne 133 Nancy-Ochey

latitude: 48-35N, longitude: 005-58E, altitude: 336 m

Observation

Le bulletin a été fait il y a 34 minutes, à 00:00 UTC
Vent 9 kt de est/nord-est
Température -2°C
Humidité 63%
Pression 1013 hPa
Visibilité 10 km ou plus
pas de nuages en-dessous de 1500 mètres et pas de cumulonimbus.

METAR: LFSO 240000Z AUTO 06009KT CAVOK M02/M08 Q1013

Heure: 01:34 (00:34 UTC)

Prévision

Le bulletin a été fait il y a 10 heures et 34 minutes, à 14:00 UTC
Prévision valable du 23 à 15 UTC au 24 à 15 UTC
Vent 15 kt de est/nord-est avec des rafales jusqu'à 25 kt
Visibilité 10 km ou plus
Nuages fragmentés à une hauteur de 3500 ft

TAF: LFSO 231400Z 2315/2415 07015G25KT 9999 BKN035

Observations et prévisions météorologiques de plus de 4000 aéroports (messages METAR et TAF).

Les stations disponibles sont représentées par des disques jaunes et rouges sur la carte.

Passer la souris dessus pour voir le nom de la station.

Cliquer dessus pour voir les observations et prévisions météorologiques.

Pour changer de carte: cliquez sur les boutons verts avec une croix noire pour zoomer, sur le bouton vert avec un tiret pour effectuer un zoom arrière, ou sur les flèches vertes pour les cartes adjacentes.


METAR-TAF: